ARIANE 44LP DEB, 28040

Orbit data source: Space-Track

ARIANE 44LP DEB, 28040 is space debris in HEO originally from a launch on Sat, 02 Mar 1991 UTC launched from the French Guiana (FRGUI). Debris objects in space refer to the collection of defunct objects orbiting the Earth. Examples of debris include non-operational satellites, rocket bodies, and fragments generated from explosions, collisions, or faulty payload assembly.

Loading next visibility...
Identifier
28040, 1991-015P
Orbit
HEO
Country
Flag of FRFR
Related business
Manufacturer
Unknown
Mission
Spacecraft
Bus & Motor
Unknown
Mass
Unknown
Launch date (UTC)
1991-03-02 (35 years ago)
Launch vehicle
Unknown
Launch site
French Guiana (FRGUI)
Object type
Payload
Rocket body
Debris
Shape & HBR
Unknown shape, 1.1 m
Radar Cross Section
Medium (>0.1 m² and <1 m²)

Expand to show TLE details & history
Last TLE update: 2 days ago

TLE from 2 days ago
0 ARIANE 44LP DEB
1 28040U 91015P   26171.46120661 -.00000095  00000-0  00000+0 0  9997
2 28040   7.7318 263.8760 6436991 134.0355 136.4074  2.76516910130627
Epoch: 2026-06-20T11:04Z
TLE epoch observation values (Epoch: 2026-06-20T11:04:08.251Z)
Latitude
-6.60574°
Longitude
130.75009°
Altitude
27,358.446 km
Speed
2.245 km/s
True Right ascension
13h 41m 50s
True Declination
-6° 35' 51"
Sunlit
Object was in daylight at epoch
Visualization orbit readout
Latitude
Unknown
Longitude
Unknown
Altitude
Unknown
Speed
Unknown
Apparent Right ascension
Unknown
Apparent Declination
Unknown
Sunlit
N/A
Visualization observer readout
Local Sidereal Time
23:18:30
Azimuth
Unknown
Elevation
Unknown
Doppler factor
Unknown
Orbital elements
Apogee altitude
28,872.498 km
Perigee altitude
1,263.063 km
Semi-major axis
21,445.917 km
Eccentricity
0.6437
Inclination
7.7318°
RAAN
263.876°
Arg. of periapsis
134.0355°
True anomaly
167.29099°
Mean anomaly
136.4074°
Eccentric anomaly
153.09603°
Mean motion
0.69108 °/min
Orbital period
520.93 mins
BSTAR
0
Loading maneuver chart data...
Computing Atmospheric mass density...

Documentation

Showing up to 5 results
|